Torna al catalogo

STARLINK-31316

AttivoComunicazioniVLEO
NORAD 59090·PAYLOAD·🇺🇸 United States

Lanciato Feb 29, 2024 da Cape Canaveral Space Force Station

Loading…

Prossimi Passaggi (prossime 24 ore)

TLE

AggiornatoSource: CelesTrak SupGP

Epoca: Sep 14, 2026, 13:35 UTC

1 59090C 24041S   26257.56645833  .00041082  00000+0  14882-2 0  2572
2 59090  43.0008 277.2141 0001990 277.1442 286.2017 15.27552807    19

Traccia STARLINK-31316 in tempo reale con AllMySat

Download on the App Store